Location: Moscow
(30.9132°N, 94.8252°W)
Time: 05:39:51
(UTC+00:00)

Cosmos 1371 Rocket - Pass Details

Date: 15 November 2025
Orbit: 749 x 785 km, 74.0° (Epoch: 04 December)

Event Time Altitude Azimuth Distance (km) Brightness Sun altitude
Exits shadow 10:41:01 51° 188° (S) 963 4.4 -26.9°
Maximum altitude 10:42:23 85° 105° (ESE) 781 3.9 -26.6°
Drops below altitude 10° 10:47:42 10° 17° (NNE) 2,334 6.6 -25.4°
Sets 10:50:05 0° 17° (NNE) 3,270 7.4 -24.9°
